Galesburg, IL

7:29 PM CST on February 26, 2017 (GMT -0600)
Galesburg Municipal

Weather History for KGBG - May, 2012

Change the Weather History Date:

Friday, May 11, 2012

  Actual Average Record
Temperature  
Mean Temperature 66 °F -  
Max Temperature 81 °F 71 °F 91 °F (1956)
Min Temperature 52 °F 51 °F 36 °F (1966)
Cooling Degree Days 2    
Growing Degree Days 16 (Base 50)    
Moisture  
Dew Point 45 °F    
Average Humidity 46    
Maximum Humidity 67    
Minimum Humidity 29    
Precipitation  
Precipitation 0.00 in - - ()
Sea Level Pressure  
Sea Level Pressure 30.07 in    
Wind  
Wind Speed 8 mph (SSE)    
Max Wind Speed 18 mph    
Max Gust Speed 30 mph    
Visibility 10 miles    
Events      
Averages and records for this station are not official NWS values.
T = Trace of Precipitation, MM = Missing Value Source: NWS Daily Summary

Daily Weather History Graph

Daily Weather History Graph

Search for Another Location

Airport or City:

Trip Planner

Search our weather history database for the weather conditions in past years. The results will help you decide how hot, cold, wet, or windy it might be!

Date:

Astronomy

May. 11, 2012 Rise Set
Actual Time 5:47 AM CDT 8:09 PM CDT
Civil Twilight 5:16 AM CDT 8:40 PM CDT
Nautical Twilight 4:38 AM CDT 9:18 PM CDT
Astronomical Twilight 3:56 AM CDT 10:01 PM CDT
Moon 12:48 AM CDT (5/11) 11:20 AM CDT (5/11)
Length of Visible Light 15h 23m
Length of Day
14h 21m
Waning Gibbous, 63% of the Moon is Illuminated
May 11
Waning Gibbous
May 12
Last Quarter
May 20
New
May 28
First Quarter
Jun 4
Full

Hourly Weather History & Observations

Time (CDT) Temp. Dew Point Humidity Pressure Visibility Wind Dir Wind Speed Gust Speed Precip Events Conditions
12:15 AM 59.5 °F 39.2 °F 47% 30.01 in 10.0 mi ESE 3.5 mph - N/A   Clear
12:35 AM 59.4 °F 39.2 °F 47% 30.02 in 10.0 mi ESE 4.6 mph - N/A   Clear
12:55 AM 59.0 °F 39.4 °F 48% 30.02 in 10.0 mi ESE 4.6 mph - N/A   Clear
1:15 AM 57.7 °F 40.5 °F 53% 30.02 in 10.0 mi ESE 4.6 mph - N/A   Clear
1:35 AM 57.2 °F 41.0 °F 55% 30.02 in 10.0 mi ESE 4.6 mph - N/A   Clear
1:55 AM 56.3 °F 41.0 °F 57% 30.02 in 10.0 mi ESE 4.6 mph - N/A   Clear
2:15 AM 56.1 °F 41.2 °F 57% 30.02 in 10.0 mi ESE 5.8 mph - N/A   Clear
2:35 AM 55.4 °F 41.9 °F 60% 30.02 in 10.0 mi East 6.9 mph - N/A   Clear
2:55 AM 55.2 °F 42.4 °F 62% 30.02 in 10.0 mi ESE 4.6 mph - N/A   Clear
3:15 AM 54.5 °F 42.6 °F 64% 30.02 in 10.0 mi ESE 5.8 mph - N/A   Clear
3:35 AM 54.5 °F 42.4 °F 64% 30.03 in 10.0 mi ESE 4.6 mph - N/A   Clear
3:55 AM 54.5 °F 41.9 °F 62% 30.03 in 10.0 mi ESE 5.8 mph - N/A   Clear
4:15 AM 53.6 °F 41.9 °F 65% 30.04 in 10.0 mi ESE 5.8 mph - N/A   Clear
4:35 AM 53.6 °F 41.9 °F 65% 30.04 in 10.0 mi ESE 5.8 mph - N/A   Clear
4:55 AM 53.6 °F 42.1 °F 65% 30.04 in 10.0 mi ESE 4.6 mph - N/A   Clear
5:15 AM 53.6 °F 42.1 °F 65% 30.05 in 10.0 mi ESE 4.6 mph - N/A   Clear
5:35 AM 53.6 °F 41.9 °F 65% 30.06 in 10.0 mi ESE 4.6 mph - N/A   Clear
5:55 AM 52.9 °F 42.1 °F 67% 30.07 in 10.0 mi ESE 4.6 mph - N/A   Clear
6:15 AM 53.2 °F 42.6 °F 67% 30.07 in 10.0 mi ESE 4.6 mph - N/A   Clear
6:35 AM 54.3 °F 43.2 °F 66% 30.08 in 10.0 mi SE 3.5 mph - N/A   Clear
6:55 AM 56.5 °F 44.2 °F 64% 30.09 in 10.0 mi Calm Calm - N/A   Clear
7:15 AM 59.0 °F 44.2 °F 58% 30.09 in 10.0 mi SSE 6.9 mph - N/A   Clear
7:35 AM 60.3 °F 44.8 °F 57% 30.09 in 10.0 mi SSE 5.8 mph - N/A   Clear
7:55 AM 62.6 °F 44.1 °F 51% 30.09 in 10.0 mi SSE 10.4 mph - N/A   Clear
8:15 AM 64.6 °F 43.9 °F 47% 30.10 in 10.0 mi South 12.7 mph - N/A   Clear
8:35 AM 65.7 °F 43.9 °F 45% 30.10 in 10.0 mi South 10.4 mph - N/A   Clear
8:55 AM 67.5 °F 43.7 °F 42% 30.10 in 10.0 mi South 13.8 mph 19.6 mph N/A   Clear
9:15 AM 68.9 °F 44.1 °F 41% 30.10 in 10.0 mi South 13.8 mph 23.0 mph N/A   Clear
9:35 AM 70.5 °F 44.4 °F 39% 30.09 in 10.0 mi South 11.5 mph - N/A   Scattered Clouds
9:55 AM 71.6 °F 43.7 °F 37% 30.09 in 10.0 mi South 12.7 mph - N/A   Overcast
10:15 AM 72.1 °F 43.2 °F 35% 30.09 in 10.0 mi South 11.5 mph - N/A   Overcast
10:35 AM 73.8 °F 43.7 °F 34% 30.09 in 10.0 mi South 12.7 mph 19.6 mph N/A   Overcast
10:55 AM 73.8 °F 42.8 °F 33% 30.09 in 7.0 mi South 11.5 mph 19.6 mph N/A   Overcast
11:15 AM 74.5 °F 43.0 °F 32% 30.09 in 10.0 mi South 16.1 mph 21.9 mph N/A   Mostly Cloudy
11:35 AM 75.7 °F 42.1 °F 30% 30.09 in 10.0 mi South 16.1 mph 21.9 mph N/A   Scattered Clouds
11:55 AM 75.2 °F 42.1 °F 30% 30.09 in 10.0 mi South 13.8 mph 19.6 mph N/A   Mostly Cloudy
12:15 PM 77.0 °F 45.0 °F 32% 30.09 in 10.0 mi South 17.3 mph 29.9 mph N/A   Overcast
12:35 PM 78.3 °F 43.5 °F 29% 30.09 in 10.0 mi South 12.7 mph 20.7 mph N/A   Scattered Clouds
12:55 PM 78.4 °F 45.5 °F 31% 30.09 in 10.0 mi SSW 12.7 mph 21.9 mph N/A   Clear
1:15 PM 78.8 °F 43.7 °F 29% 30.08 in 10.0 mi SSW 18.4 mph 24.2 mph N/A   Clear
1:35 PM 79.5 °F 45.9 °F 30% 30.08 in 10.0 mi South 16.1 mph 20.7 mph N/A   Clear
1:55 PM 79.3 °F 45.7 °F 30% 30.07 in 10.0 mi SSW 16.1 mph 21.9 mph N/A   Clear
2:15 PM 79.7 °F 46.4 °F 31% 30.07 in 10.0 mi SSW 11.5 mph 18.4 mph N/A   Clear
2:35 PM 80.6 °F 46.9 °F 31% 30.07 in 10.0 mi SSW 15.0 mph - N/A   Clear
2:55 PM 80.6 °F 46.2 °F 30% 30.07 in 10.0 mi South 12.7 mph 19.6 mph N/A   Clear
3:15 PM 80.6 °F 46.4 °F 30% 30.07 in 10.0 mi South 13.8 mph - N/A   Clear
3:35 PM 80.8 °F 47.3 °F 31% 30.06 in 10.0 mi SSW 17.3 mph - N/A   Clear
3:55 PM 81.7 °F 47.7 °F 30% 30.06 in 10.0 mi South 12.7 mph 21.9 mph N/A   Clear
4:15 PM 81.5 °F 46.9 °F 30% 30.06 in 10.0 mi South 13.8 mph 20.7 mph N/A   Clear
4:35 PM 81.3 °F 46.2 °F 29% 30.06 in 10.0 mi South 12.7 mph 21.9 mph N/A   Clear
4:55 PM 81.5 °F 47.3 °F 30% 30.06 in 10.0 mi South 12.7 mph - N/A   Clear
5:15 PM 79.3 °F 47.5 °F 33% 30.06 in 10.0 mi SSW 16.1 mph 21.9 mph N/A   Clear
5:35 PM 80.1 °F 47.7 °F 32% 30.06 in 10.0 mi South 10.4 mph - N/A   Clear
5:55 PM 79.9 °F 47.8 °F 32% 30.06 in 10.0 mi SSW 12.7 mph 20.7 mph N/A   Clear
6:15 PM 79.2 °F 47.8 °F 33% 30.06 in 10.0 mi SSW 13.8 mph 18.4 mph N/A   Clear
6:35 PM 79.2 °F 48.9 °F 35% 30.06 in 10.0 mi SSW 12.7 mph - N/A   Clear
7:15 PM 76.5 °F 48.9 °F 38% 30.07 in 10.0 mi SSW 11.5 mph - N/A   Clear
7:35 PM 76.1 °F 49.3 °F 39% 30.07 in 10.0 mi SSW 8.1 mph - N/A   Clear
7:55 PM 74.7 °F 50.2 °F 42% 30.07 in 10.0 mi SSW 8.1 mph - N/A   Clear
8:15 PM 72.5 °F 50.9 °F 47% 30.08 in 10.0 mi SSW 8.1 mph - N/A   Clear
8:35 PM 71.6 °F 51.1 °F 48% 30.09 in 10.0 mi SSW 8.1 mph - N/A   Clear
8:55 PM 71.2 °F 51.3 °F 49% 30.10 in 10.0 mi SSW 8.1 mph - N/A   Clear
9:15 PM 71.1 °F 51.3 °F 49% 30.11 in 10.0 mi SSW 9.2 mph - N/A   Scattered Clouds
9:35 PM 70.9 °F 51.1 °F 49% 30.11 in 10.0 mi South 6.9 mph - N/A   Scattered Clouds
9:55 PM 70.2 °F 51.8 °F 52% 30.11 in 10.0 mi SSW 6.9 mph - N/A   Mostly Cloudy
10:15 PM 69.3 °F 52.0 °F 54% 30.11 in 10.0 mi SSW 4.6 mph - N/A   Overcast
10:35 PM 68.0 °F 52.0 °F 56% 30.12 in 10.0 mi South 6.9 mph - N/A   Scattered Clouds
10:55 PM 68.7 °F 51.8 °F 55% 30.12 in 10.0 mi South 5.8 mph - N/A   Scattered Clouds
11:15 PM 68.2 °F 51.8 °F 56% 30.12 in 10.0 mi South 5.8 mph - N/A   Clear
11:35 PM 68.0 °F 51.8 °F 56% 30.12 in 10.0 mi South 8.1 mph - N/A   Clear
11:55 PM 66.9 °F 52.2 °F 59% 30.12 in 10.0 mi SSW 6.9 mph - N/A   Scattered Clouds